This demonstration page uses our WeatherBlox Daily Observations layout. Learn more.

Left ArrowRight Arrow

Hourly Observations for May 11, 2020

Temp ( °F °C ) Dew Point ( °F °C ) Humidity (%) Winds ( mph kmh ) Pressure ( in mb ) Visibility ( mi km ) Precip ( " mm )
12:52 am 00:52 Clear 46 7.8 33 0.6 61 61 Calm 30.30 1026 10 16 0.00 0.00
1:52 am 01:52 Clear 41 5 34 1.1 76 76 NNW 6 9 30.30 1026 10 16 0.00 0.00
2:52 am 02:52 Clear 42 5.6 34 1.1 73 73 Calm 30.30 1026 10 16 0.00 0.00
3:52 am 03:52 Clear 41 5 34 1.1 76 76 Calm 30.30 1026 10 16 0.00 0.00
4:52 am 04:52 Clear 38 3.3 32 0 79 79 Calm 30.29 1026 10 16 0.00 0.00
5:52 am 05:52 Clear 37 2.8 34 1.1 89 89 SSW 3 6 30.32 1027 10 16 0.00 0.00
6:52 am 06:52 Sunny 38 3.3 34 1.1 86 86 Calm 30.31 1027 10 16 0.00 0.00
7:52 am 07:52 Mostly Sunny 44 6.7 36 2.2 73 73 NNW 3 6 30.35 1028 10 16 0.00 0.00
8:52 am 08:52 Sunny 46 7.8 36 2.2 68 68 NW 5 7 30.37 1029 10 16 0.00 0.00
9:52 am 09:52 Mostly Cloudy 47 8.3 36 2.2 66 66 N 3 6 30.38 1029 10 16 0.00 0.00
10:52 am 10:52 Cloudy 48 8.9 36 2.2 63 63 Calm 30.37 1028 10 16 0.00 0.00
11:52 am 11:52 Cloudy with Light Rain 50 10 37 2.8 61 61 NNW 5 7 30.38 1029 10 16 0.00 0.00
12:52 pm 12:52 Cloudy 49 9.4 30 -1.1 48 48 NNW 3 6 30.36 1028 10 16 0.00 0.00
1:52 pm 13:52 Cloudy 50 10 31 -0.6 48 48 W 7 11 30.34 1027 10 16 0.00 0.00
2:52 pm 14:52 Cloudy 47 8.3 35 1.7 63 63 SW 7 11 30.33 1027 10 16 0.00 0.00
3:52 pm 15:52 Cloudy with Light Rain 47 8.3 37 2.8 69 69 SW 5 7 30.31 1026 10 16 0.00 0.00
4:52 pm 16:52 Cloudy 47 8.3 38 3.3 71 71 NNE 5 7 30.28 1025 10 16 0.00 0.00
5:52 pm 17:52 Cloudy with Light Rain 45 7.2 39 3.9 80 80 N 6 9 30.27 1025 7 11 0.03 0.76
6:52 pm 18:52 Cloudy with Light Rain 45 7.2 39 3.9 80 80 NE 5 7 30.25 1024 10 16 0.01 0.25
7:52 pm 19:52 Cloudy with Light Rain 44 6.7 39 3.9 83 83 Calm 30.25 1025 6 10 0.01 0.25
8:52 pm 20:52 Cloudy with Light Rain 42 5.6 39 3.9 89 89 N 6 9 30.26 1025 8 13 0.08 2.03
9:52 pm 21:52 Cloudy with Rain 41 5 39 3.9 93 93 N 7 11 30.29 1026 5 8 0.18 4.57
10:52 pm 22:52 Cloudy with Rain 41 5 40 4.4 96 96 Calm 30.29 1026 3 5 0.24 6.10
11:52 pm 23:52 Cloudy with Light Rain 41 5 40 4.4 96 96 ENE 8 13 30.22 1024 8 13 0.10 2.54

Powered by AerisWeather